OBJECT D, 58852

Orbit data source: Space-Track

You're viewing an Uncataloged Satellite

Recently launched and/or uncataloged satellites may have evolving metadata. Metadata may include but not limited to: Owner, Maufacturer, Bus, Motor, and Mission.

OBJECT D, 58852 is an Iranian satellite in LEO that was launched on Sun, 28 Jan 2024 UTC via an SIMORGH launch vehicle from the Semnan, Iran (SEM). Unknown objects in Earth's orbit typically refer to objects detected orbiting the Earth but have not yet been identified or cataloged. These objects could be anything from previously untracked satellites, spent rocket stages, debris from satellite collisions, or even natural meteoroids temporarily captured by Earth's gravity.

Loading next visibility...
Identifier
58852, 2024-018D
Orbit
LEO
Country
Flag of IRIR / IRAN
Related business
None
Manufacturer
Unknown
Mission
Defense Technology
Bus & Motor
Unknown
Mass
Unknown
Launch date (UTC)
2024-01-28 (2 years ago)
Launch vehicle
SIMORGH
Launch site
Semnan, Iran (SEM)
Object type
Unknown
Shape & HBR
Box, 0.1 m
Radar Cross Section
0.035 m², Medium (>0.1 m² and < 1m²)

Expand to show TLE details & history
Last TLE update: 12 hours ago

TLE from 12 hours ago
0 OBJECT D
1 58852U 24018D   26171.40597264  .00004249  00000-0  38574-3 0  9996
2 58852  58.6651 170.3033 0368776 127.9691 235.5269 14.57087079126492
Epoch: 2026-06-20T09:44Z
TLE epoch observation values (Epoch: 2026-06-20T09:44:36.036Z)
Latitude
0.00004°
Longitude
115.53212°
Altitude
858.175 km
Speed
7.343 km/s
True Right ascension
11h 21m 12s
True Declination
0° 00' 00"
Sunlit
Object was in daylight at epoch
Visualization orbit readout
Latitude
Unknown
Longitude
Unknown
Altitude
Unknown
Speed
Unknown
Apparent Right ascension
Unknown
Apparent Declination
Unknown
Sunlit
N/A
Visualization observer readout
Local Sidereal Time
08:32:49
Azimuth
Unknown
Elevation
Unknown
Doppler factor
Unknown
Orbital elements
Apogee altitude
963.111 km
Perigee altitude
440.913 km
Semi-major axis
7,080.149 km
Eccentricity
0.03688
Inclination
58.6651°
RAAN
170.3033°
Arg. of periapsis
127.9691°
True anomaly
232.13378°
Mean anomaly
235.5269°
Eccentric anomaly
233.82138°
Mean motion
3.64317 °/min
Orbital period
98.82 mins
BSTAR
0.00038574
Loading maneuver chart data...
Computing Atmospheric mass density...
Loading historical data...
Loading historical data...
Loading historical data...
Loading historical data...
Loading historical data...
Loading historical data...
Loading historical data...
Other satellites on launch #18 in the year 2024 (2024-01-28 UTC)

Documentation

Showing up to 5 results
|